GFSNGP_sfc_thetae_000.txt.gz
Theta_e
296 296 296 295 295 295 294 295 290 293 293 297 300 301 302 303 304 304 303 303 303 303 302 301 301 301 301 301 303 303 302 300 300 298 296 296 295 294 293 292 291 290 289 289
293 297 296 293 295 295 295 295 295 295 295 302 303 303 302 302 302 302 301 301 301 301 300 299 299 298 298 298 299 303 300 299 300 299 297 295 294 293 292 290 289 289 288 288
290 294 292 290 294 296 296 298 297 292 297 302 300 301 301 301 302 300 299 299 299 299 298 297 296 296 296 296 298 299 298 299 299 296 294 295 294 292 290 288 288 288 288 288
289 289 285 296 300 300 297 298 299 299 300 301 300 301 302 302 299 298 298 298 298 297 297 297 297 296 295 295 295 295 296 297 297 296 294 294 293 291 290 288 287 287 287 287
287 287 291 294 298 296 295 294 300 300 300 301 300 300 299 300 300 298 298 298 297 297 296 296 295 295 294 294 294 294 294 295 295 295 293 292 291 290 288 287 287 287 287 285
288 284 282 296 300 303 301 290 302 301 299 298 298 291 294 299 299 298 297 296 296 296 295 294 294 294 293 292 292 292 294 294 293 293 293 291 291 289 288 287 287 286 285 284
288 286 290 298 301 302 289 292 302 301 299 298 295 297 299 300 297 296 296 296 296 295 293 293 293 293 291 291 290 294 294 294 293 293 291 291 290 288 287 286 285 284 283 283
289 286 284 302 300 293 300 304 302 301 300 299 299 300 298 297 295 295 294 294 294 293 292 293 293 292 291 290 293 294 294 293 292 292 291 290 288 286 286 285 284 282 279 281
294 294 303 304 302 305 304 302 301 300 300 300 299 297 296 295 295 295 294 293 294 292 292 293 293 292 291 291 292 292 292 291 291 290 290 289 286 285 284 284 281 280 280 278
297 300 301 304 305 305 304 302 302 302 301 300 297 296 294 295 294 293 293 292 293 292 291 291 292 292 292 292 292 290 289 289 289 288 287 287 287 285 283 282 280 280 278 276
298 301 302 303 303 303 302 303 302 302 301 297 296 294 295 293 293 293 293 292 292 291 291 291 292 292 292 291 290 288 288 288 286 286 286 286 286 283 283 281 280 278 277 276
295 302 302 301 302 302 301 301 301 300 297 296 296 294 293 292 292 292 291 291 291 291 291 291 291 291 291 290 289 287 285 285 286 285 285 285 284 283 283 281 280 280 278 275
301 305 304 303 303 303 300 299 299 297 296 294 294 293 292 290 291 290 291 291 291 290 291 291 291 290 291 289 287 286 285 285 285 284 285 283 283 282 280 282 282 281 279 279
305 304 300 301 299 302 299 298 297 296 294 293 292 292 291 290 290 290 290 291 291 291 291 290 289 289 290 290 287 285 285 282 284 286 284 283 282 282 282 281 279 279 281 279
302 302 301 302 302 298 297 296 293 291 291 291 291 290 290 289 288 289 290 290 290 289 289 288 288 287 289 288 286 285 285 283 283 284 284 283 283 283 282 282 281 280 279 279
301 301 299 297 295 295 293 292 290 290 290 289 289 289 290 289 288 288 288 289 285 284 286 286 284 286 287 289 287 286 285 282 280 283 283 283 283 282 281 281 280 280 279 276
297 295 295 293 292 291 290 291 291 290 289 288 288 287 286 286 285 286 286 286 285 285 286 286 286 287 286 288 286 285 285 284 283 283 283 283 282 282 282 281 280 280 279 274
299 298 296 292 290 290 291 291 289 288 287 289 284 283 282 282 283 284 284 285 285 286 286 287 286 285 285 287 286 284 282 283 284 283 283 283 282 281 281 281 280 280 279 278
294 292 292 291 291 291 290 289 287 287 285 285 284 284 285 284 284 284 285 284 284 284 286 286 285 285 284 284 283 283 284 284 283 283 283 283 282 282 282 282 281 280 279 279
291 291 291 290 289 285 286 286 285 286 288 286 284 284 284 284 283 285 285 283 284 286 287 286 285 283 283 284 280 282 285 284 283 282 283 283 281 282 282 281 281 281 281 280
289 290 287 287 285 285 285 285 284 284 286 284 284 284 284 285 285 285 284 283 286 287 287 287 286 285 286 285 283 283 283 284 283 283 283 283 282 282 282 282 282 282 281 281
290 288 285 285 285 286 286 286 286 286 285 285 283 284 285 284 285 285 286 285 287 287 287 287 287 286 286 280 284 284 283 284 281 283 283 283 283 282 281 281 281 281 281 281
289 288 287 286 285 286 287 286 286 285 285 285 285 285 285 285 285 284 283 287 286 287 286 287 287 286 284 283 283 283 283 282 283 282 283 283 283 282 282 281 281 281 280 280
289 289 288 287 287 286 285 287 288 287 287 287 286 286 286 285 286 287 287 287 286 286 286 286 286 285 284 283 282 283 282 282 282 283 283 283 283 282 281 281 281 281 281 281
288 288 287 286 286 288 289 290 289 288 287 288 288 288 288 288 286 286 287 286 286 285 286 286 285 284 284 283 283 283 283 283 283 282 283 282 282 282 283 283 282 281 281 281
288 289 290 289 289 290 291 290 289 290 289 287 287 287 287 287 287 287 287 286 286 286 285 286 285 285 284 283 283 283 284 283 282 282 282 281 281 281 281 281 282 281 281 281
290 287 290 290 291 291 290 290 289 288 287 286 285 286 286 286 286 287 286 286 286 286 286 286 286 285 285 284 284 284 284 283 282 282 282 281 280 280 280 280 280 280 280 280

GFSNGP_sfc_thetae_003.txt.gz
Theta_e
293 293 294 293 292 292 290 290 284 288 291 295 296 297 298 299 300 299 298 298 297 297 295 294 293 292 292 292 294 294 296 297 297 297 294 294 293 292 292 290 288 286 286 286
285 294 293 290 292 292 292 292 292 292 292 298 298 298 298 298 298 296 296 296 296 297 295 293 291 291 292 291 291 293 292 292 295 295 294 294 294 293 291 288 286 285 285 285
282 290 287 281 288 294 294 294 293 285 293 297 295 296 296 295 295 295 295 295 295 295 292 292 291 291 289 290 291 291 291 293 295 294 293 294 294 292 288 286 284 284 284 284
278 281 274 292 298 297 294 295 297 297 296 296 295 296 295 295 294 294 295 295 295 292 291 290 289 289 289 289 290 290 290 292 293 292 292 294 294 289 287 285 283 282 282 283
279 277 284 291 295 293 290 290 298 296 296 296 296 296 293 296 296 294 294 294 291 290 290 288 288 288 288 288 288 289 291 291 291 291 291 291 290 288 287 284 282 282 283 282
277 275 272 287 297 300 298 283 298 297 295 294 293 282 289 296 296 294 292 292 290 290 288 287 288 288 288 287 287 289 291 291 291 290 290 290 290 288 284 283 283 283 282 282
281 273 282 294 298 300 283 285 298 297 295 294 290 289 294 297 294 292 292 291 291 289 287 287 288 288 287 287 287 290 291 291 291 291 290 289 288 285 283 281 282 280 280 280
281 278 276 298 297 288 292 297 297 297 296 296 295 296 297 293 292 292 290 290 290 288 287 288 289 288 287 286 288 290 289 289 289 289 289 288 284 283 282 280 280 277 274 273
286 285 294 299 297 301 301 298 297 295 297 296 296 296 292 292 291 291 289 288 289 287 288 288 288 288 287 287 288 288 287 286 286 287 287 286 284 282 280 279 276 276 276 271
288 296 297 299 302 302 301 299 299 299 299 298 296 292 291 291 289 288 287 286 287 287 287 287 288 289 288 288 288 287 285 285 285 284 284 284 284 281 279 274 274 277 275 272
290 296 298 299 300 301 300 301 301 302 301 300 293 291 289 288 287 287 286 287 287 286 287 288 288 288 288 288 287 286 285 285 283 282 282 282 282 280 279 278 278 274 272 272
286 298 297 297 300 301 299 299 301 300 295 293 290 288 288 286 286 286 286 287 287 288 288 288 288 287 288 288 286 283 283 281 280 280 279 281 281 279 283 282 282 281 279 273
296 302 301 300 301 302 299 297 295 294 292 288 289 288 287 286 286 287 287 287 287 287 288 288 287 286 287 286 285 283 282 282 279 280 278 278 276 276 273 279 284 283 281 280
303 301 297 300 297 300 297 295 295 291 290 289 287 287 287 286 286 286 286 287 287 287 286 285 285 286 287 287 286 282 282 280 277 276 276 277 280 281 281 280 277 279 280 280
300 300 299 301 300 297 295 291 288 287 287 286 287 287 286 285 285 285 286 286 286 285 285 285 285 287 288 285 284 284 282 278 275 273 273 278 281 280 280 279 279 278 276 277
299 300 300 296 293 292 290 288 287 286 286 286 286 284 286 286 285 285 285 285 281 283 283 282 284 286 286 286 285 285 280 277 276 275 275 280 280 279 279 279 279 278 276 271
294 292 292 291 289 288 288 288 288 286 286 284 283 283 283 282 280 282 282 281 278 283 284 282 285 288 286 285 285 284 277 276 275 274 277 280 280 279 279 279 279 278 276 269
298 295 292 290 288 287 287 286 284 283 283 283 277 275 275 275 278 280 279 283 284 284 284 284 286 286 285 285 283 282 280 277 277 277 280 279 280 279 279 278 279 278 278 271
292 290 289 289 289 285 284 283 281 282 280 277 275 278 277 277 277 280 283 283 283 283 283 285 285 285 284 281 279 275 273 272 276 280 278 273 277 279 279 279 279 279 279 276
289 288 287 286 285 280 281 279 280 283 283 279 275 276 278 275 279 284 284 283 284 284 284 285 286 285 282 281 279 276 271 270 274 279 271 271 273 279 280 279 279 278 279 279
285 284 282 281 279 277 278 278 275 278 281 278 280 280 277 278 277 278 282 282 283 280 283 287 285 286 285 281 278 274 273 271 275 280 271 273 271 275 280 280 279 276 276 276
285 283 281 280 277 280 280 281 283 284 284 284 284 284 283 280 278 282 284 283 283 284 283 286 284 286 285 282 283 282 275 276 278 280 270 272 275 272 275 279 278 279 279 276
285 283 283 280 279 281 283 285 284 285 284 284 281 284 284 283 282 283 281 281 282 285 285 285 286 286 285 285 283 282 280 278 274 273 275 276 279 280 280 279 279 279 279 279
284 285 282 281 280 284 283 284 281 282 282 282 286 286 284 283 282 282 283 285 285 285 285 286 286 285 285 284 283 281 277 279 279 276 276 273 279 281 281 281 279 279 279 279
282 283 281 280 281 283 284 285 283 282 281 285 284 281 280 279 280 285 286 286 285 285 285 286 285 285 285 284 283 281 280 281 281 280 279 279 279 281 279 279 281 281 280 280
285 283 283 285 284 284 284 282 282 282 278 276 276 275 275 277 283 285 286 286 286 286 285 285 286 285 285 285 283 282 282 282 282 282 281 279 279 280 280 280 280 280 280 280
284 281 282 283 283 282 279 279 280 281 284 284 283 278 279 285 282 282 284 285 285 285 285 285 285 285 285 285 285 284 283 283 283 283 281 280 279 279 280 280 280 279 278 278

GFSNGP_sfc_thetae_006.txt.gz
Theta_e
290 292 291 290 289 289 289 289 283 287 288 293 294 295 296 297 296 296 295 295 295 294 292 289 289 289 289 289 290 290 290 289 291 293 292 292 293 293 293 293 293 288 286 286
284 292 292 287 290 290 290 290 289 291 290 295 295 296 295 295 294 294 295 294 294 294 290 290 289 288 288 289 289 290 289 290 293 293 293 292 292 292 291 291 287 286 285 284
281 286 285 280 287 291 291 293 291 284 291 294 293 294 293 292 293 293 293 293 293 292 290 289 287 288 287 288 289 289 289 291 291 293 292 291 292 291 291 287 288 284 283 283
276 278 272 290 295 295 293 294 294 293 293 293 294 294 293 293 292 293 293 293 292 289 288 287 287 287 287 288 287 288 289 290 290 290 290 290 290 289 289 287 285 282 281 282
275 276 281 288 293 292 289 290 296 294 294 294 294 292 291 294 294 293 293 291 290 289 288 286 286 287 287 287 287 287 289 289 289 289 289 288 289 288 288 285 281 282 282 281
279 272 271 284 295 298 295 283 296 295 294 293 292 281 287 295 295 293 291 290 289 288 287 286 287 287 286 286 286 286 289 289 289 289 289 288 287 286 285 282 282 282 281 280
276 270 279 289 295 297 282 284 296 295 294 293 289 289 292 295 294 291 290 289 289 287 286 286 287 287 286 286 285 287 289 289 289 288 287 287 286 283 282 281 281 279 279 278
276 272 276 294 295 287 291 294 296 295 295 294 293 294 295 294 290 289 287 287 287 286 286 286 287 287 285 285 287 287 287 287 286 286 286 286 283 282 282 281 278 276 270 272
286 285 292 295 295 297 298 296 296 295 296 295 294 294 292 289 288 286 285 285 286 285 285 286 287 287 285 286 287 287 285 285 284 284 284 284 281 279 279 277 274 274 276 270
288 294 295 297 299 300 300 298 297 297 297 298 294 291 288 287 286 285 284 284 285 285 285 285 286 287 286 287 287 285 284 284 283 282 283 282 281 280 278 273 272 276 274 272
288 293 296 298 298 299 299 299 298 300 298 298 290 287 286 285 285 285 284 285 285 285 285 285 286 287 287 287 286 284 284 284 282 280 281 281 279 279 279 279 277 274 272 272
288 294 295 295 299 299 298 298 300 299 290 290 289 286 286 285 285 285 284 285 284 285 285 285 286 285 286 286 285 284 283 282 280 278 277 280 280 280 283 283 282 283 280 273
295 299 300 299 300 300 298 298 295 292 289 287 286 286 285 284 285 285 285 284 284 285 285 285 284 283 285 285 286 285 285 284 281 279 278 276 275 276 272 278 283 284 282 281
301 300 296 298 297 300 295 293 291 289 288 287 286 286 285 284 285 284 284 284 285 285 285 284 282 282 284 287 285 282 282 281 280 278 274 274 271 276 278 274 270 272 278 281
300 299 298 299 297 294 291 290 287 286 286 285 285 284 284 284 284 284 284 284 284 283 283 284 284 283 286 286 285 284 284 280 278 272 273 272 272 274 275 276 274 274 272 277
298 297 298 297 291 290 289 288 286 285 285 284 283 283 283 285 284 283 283 283 280 282 283 283 283 284 286 287 286 283 283 279 273 273 276 277 273 274 277 276 274 274 272 269
292 291 291 290 288 288 288 288 287 286 285 283 282 281 283 280 278 281 281 280 279 282 283 284 282 286 286 287 285 282 282 280 279 279 279 279 273 274 277 276 272 274 273 268
293 292 291 290 288 287 287 285 284 283 283 282 276 271 271 272 275 277 278 278 281 283 283 283 284 284 286 286 285 281 280 280 278 279 274 271 272 274 274 273 273 272 273 272
291 290 289 288 287 284 283 282 280 280 277 275 273 275 274 276 275 278 277 275 280 281 282 282 283 284 285 285 282 275 271 269 270 273 278 273 267 277 278 275 272 273 271 271
287 288 287 286 284 281 281 278 276 280 282 277 271 270 275 276 275 276 277 277 282 282 280 281 283 284 284 284 283 279 272 268 270 271 268 267 265 272 278 275 274 270 268 269
285 284 281 281 280 278 276 276 273 276 279 280 282 281 281 282 281 275 275 279 281 278 280 284 281 284 286 285 284 279 274 273 269 271 275 277 267 268 277 277 274 270 267 267
285 282 281 279 276 279 278 277 281 283 283 283 283 283 282 283 283 275 275 279 284 279 283 284 284 285 285 285 284 283 282 280 277 276 276 271 269 270 272 276 275 277 274 271
284 283 282 279 277 280 280 280 279 279 279 281 283 279 279 284 283 281 281 281 281 284 285 284 285 285 285 285 285 283 282 281 279 279 277 275 274 272 275 279 278 279 279 278
283 285 281 280 277 278 279 284 280 281 279 280 279 282 284 283 284 280 281 279 281 285 285 285 285 285 285 285 285 284 283 282 281 280 279 277 278 277 276 277 278 279 278 277
281 282 280 278 280 282 283 284 281 281 280 280 281 285 284 283 282 280 279 282 285 285 284 285 285 285 285 285 284 283 282 282 282 281 281 280 280 280 279 279 279 280 280 279
284 282 282 284 283 282 282 280 278 277 280 280 282 283 283 282 280 283 284 284 284 284 284 284 285 285 285 285 285 285 284 283 283 282 282 282 282 281 281 280 279 279 281 280
282 278 281 282 282 281 278 282 283 282 277 277 278 277 279 282 284 283 281 282 284 283 283 282 282 282 283 283 284 284 285 285 284 283 283 283 283 282 281 280 279 279 280 280

GFSNGP_sfc_thetae_009.txt.gz
Theta_e
288 290 289 288 288 289 288 287 283 286 286 291 293 293 294 294 294 294 293 294 294 292 291 289 288 288 287 288 288 289 288 288 290 291 291 290 290 290 290 290 291 290 287 285
284 290 289 286 288 288 288 288 288 288 288 294 294 295 294 294 293 292 293 295 294 294 291 289 287 286 287 287 288 288 287 289 290 290 291 291 291 290 292 291 290 284 288 285
278 284 284 278 285 289 289 291 289 285 290 293 292 294 292 292 292 292 293 293 292 292 289 288 287 287 286 287 287 287 287 289 290 289 290 289 289 290 289 288 286 285 282 281
275 276 272 286 291 293 291 292 292 291 292 293 294 293 293 293 292 292 292 292 292 290 288 287 286 286 286 286 286 286 287 288 289 288 288 288 288 288 287 287 286 281 281 281
274 275 280 286 291 291 289 289 294 291 292 292 293 291 290 293 293 292 292 292 290 288 287 286 285 286 285 285 285 286 286 287 288 288 287 287 286 286 286 285 282 281 282 281
277 271 271 282 292 296 293 283 295 294 292 291 290 282 288 293 293 293 293 289 288 286 285 285 285 285 284 285 285 285 286 287 288 287 287 286 285 284 284 280 281 281 281 280
273 270 279 287 294 295 283 283 295 295 294 291 290 290 291 294 295 291 288 286 286 286 285 285 285 286 285 285 284 286 287 287 286 286 284 284 283 282 281 281 281 279 279 278
278 272 276 292 293 287 291 292 296 295 294 293 293 293 294 295 289 286 285 285 285 285 284 285 286 285 284 283 285 286 286 285 285 284 284 284 281 280 280 279 278 276 270 272
284 284 291 293 294 295 296 295 295 295 295 295 295 294 294 287 285 285 284 283 284 284 285 285 285 285 283 284 286 285 285 284 283 283 283 282 280 278 278 277 274 275 276 270
287 292 293 294 296 299 298 297 297 297 296 296 295 292 287 285 285 284 283 283 284 284 283 283 285 285 285 285 286 285 284 284 284 283 282 281 280 280 278 274 274 277 274 272
287 292 294 297 298 299 299 298 297 298 297 297 292 286 287 286 284 284 283 284 284 283 283 283 284 285 284 284 284 283 283 285 283 282 281 280 280 279 278 279 279 275 273 272
285 293 294 293 298 299 297 297 298 296 292 289 289 287 286 284 284 284 283 283 282 283 283 283 284 283 283 284 284 283 284 284 283 283 280 280 279 278 283 283 283 283 282 273
294 296 295 297 298 299 298 299 299 291 289 288 287 287 286 284 284 285 283 283 282 283 283 283 282 282 283 283 283 284 282 283 285 283 280 278 276 276 271 277 282 283 284 281
299 299 294 296 296 299 295 292 291 289 289 288 287 286 284 283 284 284 283 283 283 283 282 282 282 283 284 283 285 284 284 280 281 280 280 277 275 273 271 271 269 271 277 282
298 300 298 298 297 291 289 288 287 286 286 286 286 284 283 283 282 283 283 283 283 282 282 283 283 283 284 285 285 285 284 283 280 279 278 275 276 273 272 271 270 270 270 274
297 297 296 293 289 289 288 288 286 285 285 285 284 283 283 284 283 283 283 283 279 279 281 283 282 283 284 286 286 286 284 282 278 278 277 279 277 272 274 273 270 269 268 268
291 289 287 287 289 290 289 289 288 286 285 283 283 282 282 278 278 281 281 279 274 275 278 278 280 285 284 285 286 286 284 282 280 280 279 274 273 272 275 271 271 268 270 267
292 291 291 290 288 286 286 287 286 284 283 283 276 273 272 272 275 276 277 276 273 276 279 280 280 283 284 285 286 285 282 281 280 280 280 275 272 270 270 272 273 269 269 268
289 288 289 289 290 288 285 283 282 281 278 274 274 276 274 273 276 276 275 272 274 276 280 278 280 280 283 282 284 283 282 279 276 274 273 271 266 267 267 271 274 269 270 268
289 290 288 285 284 282 282 280 279 280 282 277 272 273 278 276 272 272 272 275 279 281 280 280 281 282 282 283 284 284 283 279 275 274 265 267 265 266 267 271 273 273 269 266
284 284 282 282 281 279 279 277 275 277 279 279 281 280 281 281 282 282 279 278 280 278 280 281 283 284 284 284 285 285 283 279 276 274 274 273 272 270 271 273 275 275 273 269
284 282 281 280 279 280 279 278 281 281 278 278 280 283 283 281 279 283 281 279 281 277 279 280 283 283 284 284 285 285 284 281 280 280 278 277 276 276 276 275 275 275 275 274
283 282 281 279 279 281 280 278 277 277 277 277 277 278 280 280 283 282 281 280 278 277 279 280 280 281 284 285 285 285 284 283 282 281 280 281 280 278 277 277 277 277 279 278
283 284 282 279 276 277 279 283 280 280 276 278 277 276 278 283 284 284 283 280 275 278 283 285 283 284 285 285 285 284 283 283 283 282 282 282 281 281 279 278 278 279 278 277
281 282 280 278 280 282 283 283 281 280 278 279 281 281 284 285 284 281 279 281 282 282 281 281 283 283 283 284 284 284 284 284 283 283 282 281 281 280 280 280 280 280 280 279
284 281 281 283 281 281 281 279 277 280 282 280 279 278 277 276 278 281 281 282 280 280 278 281 280 279 276 275 274 275 277 279 281 283 283 283 282 282 282 282 281 281 281 281
280 277 280 280 281 281 279 282 282 283 283 281 281 283 282 281 279 281 281 277 275 274 274 272 270 269 270 267 266 267 268 269 269 270 271 274 279 283 283 282 282 282 281 281

GFSNGP_sfc_thetae_012.txt.gz
Theta_e
287 288 288 286 286 288 286 285 283 284 284 288 292 292 293 293 292 292 292 292 292 291 289 289 290 288 287 287 287 287 287 287 288 289 289 289 289 289 289 289 292 292 287 285
284 288 287 285 287 287 287 287 287 286 286 292 292 293 292 293 292 291 292 293 294 293 291 290 288 287 286 286 287 287 286 286 288 289 289 288 289 288 288 288 288 287 285 284
277 282 281 278 284 286 286 287 287 284 288 291 291 292 293 292 292 292 292 293 293 293 292 289 287 286 285 286 286 286 286 287 288 288 288 287 287 287 287 286 285 286 283 281
275 276 271 285 289 289 289 290 291 290 290 292 292 292 293 293 292 292 292 293 292 292 290 287 286 285 285 285 285 285 285 286 287 287 286 286 286 286 285 285 285 283 280 280
274 274 280 284 289 289 288 287 292 291 290 292 291 292 291 294 293 293 292 292 292 290 287 285 285 285 284 284 284 284 285 285 286 286 286 285 285 284 283 283 282 281 281 281
273 271 270 283 288 293 292 283 293 293 291 291 291 283 292 293 293 292 292 291 289 287 285 284 284 284 284 284 284 284 285 285 286 286 285 284 282 282 282 280 281 281 281 280
273 269 278 286 292 294 283 284 293 293 292 290 289 291 292 292 292 292 289 286 286 285 284 284 285 285 283 283 283 284 285 285 285 285 284 283 282 281 280 280 280 278 279 278
275 270 275 290 292 287 291 290 293 293 293 293 292 291 292 295 289 286 285 284 285 284 284 284 284 284 283 282 284 284 285 284 284 284 283 284 281 279 280 279 277 275 271 273
282 282 289 291 292 294 294 293 294 294 294 295 292 293 294 288 286 284 284 284 284 284 284 284 284 283 282 284 284 284 283 283 283 283 283 282 280 278 278 277 273 274 276 271
286 290 290 292 294 296 297 295 296 296 296 295 294 294 289 285 285 285 284 284 284 283 282 283 283 284 284 283 283 283 283 283 283 282 283 282 281 280 278 273 273 276 274 273
286 291 291 294 296 296 297 297 297 297 297 296 294 289 288 286 285 284 284 284 283 283 282 282 283 283 283 282 282 282 283 283 283 281 283 282 280 279 279 279 278 275 274 273
284 292 292 292 295 297 297 297 298 296 294 292 291 287 286 284 285 285 283 283 283 283 282 283 282 282 282 282 282 281 284 284 284 283 284 281 280 279 282 283 283 284 283 275
293 293 294 294 296 297 297 298 297 294 290 288 288 287 286 285 285 284 284 283 283 283 282 282 281 281 281 282 281 283 284 284 283 283 282 278 277 277 274 278 282 283 283 284
297 295 294 295 296 297 297 295 290 288 288 287 287 286 286 285 284 284 283 284 284 283 282 282 281 281 282 282 282 284 284 283 281 280 280 280 279 278 274 271 273 271 277 281
297 297 296 296 290 288 288 288 286 286 287 286 287 286 284 283 283 283 284 283 283 282 282 281 281 281 282 282 282 284 285 284 282 281 280 279 278 274 273 272 274 271 269 274
295 295 292 287 286 287 287 288 286 285 285 286 286 284 283 284 284 284 283 283 280 279 281 277 277 282 282 283 284 285 286 284 282 280 278 277 274 273 274 273 275 273 268 269
288 285 285 286 287 288 288 288 287 286 287 286 284 282 283 282 279 282 282 279 275 275 276 276 278 281 282 283 284 284 285 285 282 279 278 280 279 276 273 272 274 273 270 266
289 290 290 289 287 287 286 287 286 285 284 283 280 277 276 276 279 279 276 274 271 275 277 279 279 281 282 283 284 283 283 283 282 280 280 280 279 277 273 271 272 271 273 266
291 290 290 290 290 288 285 284 282 282 279 279 277 278 277 276 275 277 274 271 271 274 279 278 280 279 282 283 282 281 283 283 282 279 280 279 271 272 272 270 270 271 272 272
290 289 287 285 284 282 282 280 280 281 282 278 275 277 278 276 272 271 273 278 278 279 279 278 278 278 282 283 282 283 284 283 282 279 277 274 270 269 269 269 271 273 273 272
283 283 282 282 281 280 279 279 277 279 280 278 279 278 280 281 281 282 280 279 281 277 279 276 278 280 281 281 282 284 284 284 282 279 277 276 276 275 275 274 275 275 275 275
283 282 281 280 279 280 280 279 279 279 277 274 275 276 278 282 281 280 283 282 284 278 276 276 278 278 280 278 283 284 284 284 283 281 279 279 279 279 279 278 278 278 278 277
283 282 280 276 276 279 278 277 277 277 277 277 276 276 275 280 282 281 281 281 282 276 275 276 281 282 278 283 284 284 283 283 283 283 281 280 281 281 281 280 280 280 279 279
282 283 280 278 276 278 281 283 281 279 274 277 277 275 275 275 277 281 282 280 274 279 281 281 282 277 281 282 282 282 282 283 282 281 281 280 281 281 281 280 280 280 280 280
280 281 279 279 280 280 281 281 279 279 279 281 282 282 279 278 283 283 282 281 281 282 279 277 278 275 274 269 268 271 271 273 272 272 273 273 276 279 280 280 280 280 280 281
281 280 279 280 280 279 279 280 279 281 282 282 283 283 282 280 278 279 282 282 281 279 277 274 270 267 266 265 265 263 264 266 265 266 265 266 267 268 270 273 277 281 281 281
280 279 279 278 278 279 278 278 278 278 280 280 281 283 282 283 283 283 283 282 275 276 272 270 266 266 265 264 264 264 264 262 262 264 264 265 265 265 266 267 268 271 279 282

GFSNGP_sfc_thetae_015.txt.gz
Theta_e
290 290 291 290 291 291 290 290 289 290 288 293 297 298 298 298 298 297 296 297 297 296 295 294 293 293 295 294 293 294 293 293 293 295 295 295 295 295 295 295 295 296 295 291
288 289 289 289 290 290 291 291 290 290 291 296 297 298 297 297 296 296 296 297 297 297 295 292 294 295 294 293 293 293 292 292 293 293 294 294 294 293 293 294 294 294 292 291
283 285 285 284 288 290 290 291 293 289 295 296 295 295 297 297 297 296 297 297 297 296 297 296 295 294 293 292 292 291 291 291 292 292 292 293 293 292 292 292 292 292 292 289
284 281 280 290 293 292 291 292 293 293 294 296 296 297 298 299 298 297 297 297 297 297 297 297 294 292 292 290 290 290 290 290 291 291 291 292 291 291 291 291 291 291 289 287
284 281 284 289 289 292 291 292 296 294 295 295 295 297 298 299 299 300 299 298 297 297 296 292 291 290 289 289 289 289 289 290 290 290 291 291 290 289 289 289 289 288 287 286
280 282 280 288 290 297 296 289 296 297 295 294 296 294 298 299 299 298 298 297 295 291 290 290 289 290 289 288 288 288 289 289 290 291 290 290 289 289 289 289 286 287 285 285
277 283 284 290 294 297 288 290 295 297 297 295 296 300 299 298 297 298 295 290 288 289 289 289 289 289 288 288 288 289 289 289 290 290 289 290 289 289 288 287 286 285 283 283
278 280 282 292 295 292 297 297 297 298 298 297 299 296 296 296 294 291 288 288 289 288 288 288 288 288 287 287 288 288 288 288 289 289 288 288 288 288 286 286 285 283 282 282
287 288 294 294 297 298 298 297 298 298 299 299 296 295 296 292 289 288 287 287 288 288 287 287 288 288 287 288 288 287 287 288 288 288 288 288 287 287 285 284 284 283 282 283
290 293 292 294 297 297 299 300 300 300 301 299 298 296 293 288 287 287 287 287 287 286 286 286 287 287 287 287 287 286 286 287 288 287 286 288 287 286 285 284 284 283 284 283
289 293 294 296 298 300 300 300 300 301 300 299 299 296 291 288 285 285 285 286 286 286 286 286 286 287 287 287 286 286 286 286 286 286 285 285 287 286 284 285 285 284 284 283
291 297 296 297 298 300 300 300 301 300 298 297 296 291 288 286 287 286 287 286 286 286 286 286 286 286 286 286 286 286 285 287 286 286 285 286 286 285 284 284 283 284 284 283
296 297 297 298 298 301 300 301 300 299 295 290 289 288 287 286 288 289 286 286 285 286 286 286 285 285 286 286 286 285 285 286 286 286 286 285 285 285 284 285 282 283 284 284
299 299 298 299 298 297 294 290 290 289 289 288 288 289 288 288 286 286 285 286 286 286 286 285 285 284 286 286 286 285 286 285 286 286 286 286 285 285 285 283 283 284 283 282
297 299 297 291 290 289 290 290 289 288 289 289 290 290 289 286 285 286 286 286 285 285 285 285 284 285 286 287 285 285 286 286 286 286 286 285 284 284 284 283 282 282 283 281
291 289 289 288 288 289 289 289 287 287 288 288 288 287 287 285 285 286 286 286 283 284 285 283 281 285 286 286 286 286 286 285 284 285 286 285 284 283 283 283 283 282 282 283
288 286 287 287 288 289 288 289 289 290 289 289 288 286 285 284 283 284 284 284 283 282 282 281 282 286 285 286 286 286 286 285 284 285 285 284 284 283 283 283 282 282 282 284
291 290 290 289 288 288 288 288 288 288 287 285 283 282 281 281 283 283 282 281 279 279 282 283 283 284 284 286 286 286 285 285 285 284 285 284 283 284 284 283 282 282 282 283
291 290 290 290 290 289 287 286 284 283 282 282 282 282 282 281 281 281 281 278 279 280 284 284 283 283 284 284 284 286 285 285 285 284 284 284 283 283 283 282 282 282 282 282
289 289 287 286 285 284 284 283 283 284 284 282 280 280 281 281 279 279 279 279 282 283 284 283 283 283 283 284 283 286 285 284 284 284 284 284 282 282 282 280 281 281 282 282
284 284 282 282 282 281 280 280 280 282 282 279 280 281 280 282 284 283 282 282 285 284 283 282 283 285 285 283 284 284 284 284 284 284 284 284 283 282 282 282 282 282 282 282
285 284 281 280 279 282 281 281 281 281 281 280 279 278 278 280 282 284 283 283 287 285 285 285 284 283 283 283 284 284 283 284 285 285 284 284 283 283 283 283 283 283 283 283
285 284 282 281 280 282 282 282 280 280 280 280 279 280 281 282 283 281 282 286 286 286 285 285 284 281 281 283 285 284 284 283 282 284 284 283 283 282 282 283 284 284 284 284
284 283 282 280 279 280 280 281 280 281 279 282 282 283 281 280 282 285 285 284 283 283 284 284 284 282 280 281 278 277 277 276 276 275 275 274 275 275 277 279 280 282 283 283
281 281 280 279 279 278 278 279 279 280 280 281 282 283 283 284 282 283 284 284 284 284 284 283 276 274 276 274 273 272 272 272 271 270 270 270 270 271 271 272 273 274 274 276
280 279 279 278 277 277 276 276 275 277 277 277 279 281 282 283 283 283 284 284 284 284 282 276 274 273 272 271 270 269 269 269 269 268 268 268 269 269 269 269 269 270 271 272
278 276 275 276 275 273 272 272 271 272 274 274 273 276 277 279 279 280 281 283 284 279 274 272 270 269 269 268 268 268 268 268 266 266 266 266 266 266 266 266 267 268 269 270

GFSNGP_sfc_thetae_018.txt.gz
Theta_e
296 296 296 296 297 297 295 296 292 294 294 297 301 302 305 307 307 307 306 305 305 305 303 301 299 298 300 303 303 300 298 298 298 298 298 298 298 297 297 297 296 296 296 296
293 295 294 293 296 297 298 298 297 297 296 303 304 304 305 305 305 304 304 304 305 305 304 301 300 298 302 302 300 299 297 297 298 297 297 297 297 296 296 295 295 295 295 295
289 291 292 290 294 296 297 299 298 294 300 303 301 302 304 305 305 304 305 305 304 305 304 302 299 302 301 300 299 297 296 296 296 296 295 295 295 295 295 294 295 294 295 295
291 287 285 294 298 297 297 298 300 299 300 301 302 304 305 307 306 305 305 305 306 306 303 303 301 301 301 298 296 296 295 294 295 294 294 294 295 294 294 294 293 293 293 292
290 288 291 293 294 294 294 295 301 300 301 301 302 303 305 306 307 308 307 307 307 306 303 300 299 298 296 295 295 294 293 292 293 293 293 293 293 293 294 293 293 292 292 291
289 289 287 294 296 301 300 292 300 301 302 302 302 299 302 308 307 307 308 308 305 302 299 297 296 294 294 294 293 291 291 292 292 292 293 292 292 293 294 293 291 291 290 291
290 290 292 296 297 302 290 293 302 303 304 303 302 305 306 307 307 308 307 305 302 298 296 295 294 294 292 291 290 292 292 292 292 292 292 292 293 293 293 292 291 290 289 289
288 288 287 297 300 295 302 304 303 304 306 305 307 305 303 304 306 305 303 299 297 295 293 292 292 292 290 290 292 291 291 291 291 292 292 292 292 292 292 291 289 289 287 288
294 296 299 301 303 305 304 303 304 305 306 306 305 305 303 302 301 299 296 295 293 291 290 291 291 291 289 290 291 291 291 291 291 292 291 291 291 291 291 290 289 288 287 287
294 299 299 301 303 303 304 304 305 306 306 306 305 306 304 301 297 294 294 290 291 288 291 290 290 289 291 291 291 290 289 290 291 289 288 288 289 289 290 289 288 287 286 286
296 300 301 302 303 304 304 306 306 307 307 307 306 305 303 298 295 292 287 290 290 289 289 288 289 290 291 290 290 289 289 289 289 289 288 287 287 287 289 290 288 287 287 286
297 302 301 302 304 305 304 305 306 306 306 303 304 303 300 293 290 291 291 289 287 288 288 289 288 289 289 289 288 288 288 289 290 289 288 288 287 287 286 285 284 284 284 285
300 303 304 305 305 305 304 300 300 300 299 295 295 293 291 291 291 290 291 289 288 288 288 288 288 288 288 289 289 288 288 288 288 288 287 287 288 287 286 287 285 284 284 285
303 304 303 298 297 297 296 296 295 295 294 293 292 292 290 289 289 288 288 289 288 288 288 288 288 287 289 289 289 288 288 285 288 288 288 288 288 287 287 286 285 286 285 284
297 301 298 297 296 295 296 295 292 290 290 289 291 290 289 288 288 288 288 288 288 288 288 288 287 288 290 290 288 288 288 288 288 288 286 286 287 287 287 286 285 285 286 284
294 295 295 293 293 291 290 289 288 288 289 290 291 291 291 291 289 289 289 289 286 286 289 288 287 288 290 290 290 289 288 286 286 287 287 285 286 286 285 286 285 285 284 285
292 289 291 288 289 289 289 290 290 290 292 293 292 291 290 288 287 287 288 288 287 286 287 286 286 290 290 290 290 289 289 288 286 287 287 286 287 286 286 286 286 285 287 287
294 292 291 291 290 290 290 292 292 290 289 287 285 285 285 285 285 286 287 287 285 285 286 287 288 288 289 290 290 289 288 287 287 287 287 286 284 286 286 286 285 286 286 286
293 292 292 292 292 290 287 287 286 286 286 285 285 285 285 285 285 285 285 284 283 283 288 289 285 284 288 288 287 288 288 287 286 286 286 285 285 285 285 286 286 285 285 286
290 290 289 288 288 287 287 286 286 287 288 286 284 285 286 286 285 284 284 283 286 288 289 288 287 288 287 288 285 288 288 286 283 284 285 286 286 285 285 284 284 285 285 285
288 288 287 286 285 285 285 285 285 285 286 285 284 284 283 284 285 285 285 285 289 290 289 287 287 288 289 288 287 288 286 285 285 285 285 285 285 285 285 285 284 284 284 285
289 287 285 286 286 286 285 285 284 284 283 283 283 283 282 283 283 284 286 285 289 286 288 289 289 288 288 284 287 286 285 286 285 285 285 285 285 284 284 284 284 285 285 285
288 287 286 284 284 284 284 282 282 282 281 282 282 282 282 282 282 281 281 286 286 286 286 286 286 285 284 285 285 285 285 283 282 282 281 281 281 281 281 282 282 283 283 284
287 285 284 284 283 282 280 281 281 282 282 283 283 283 283 283 283 286 285 284 284 285 285 285 285 284 284 284 284 283 281 280 279 278 278 277 278 278 278 278 278 279 279 279
283 282 282 281 281 281 279 279 280 280 279 280 280 281 281 281 281 283 283 283 282 283 285 285 280 278 281 280 279 277 278 277 275 274 275 275 274 274 275 275 275 275 274 275
283 282 282 280 279 278 278 278 277 278 277 277 278 278 279 279 280 280 280 280 280 278 277 276 273 275 275 274 274 273 274 274 273 273 271 272 272 272 272 272 272 272 273 273
279 278 279 279 277 276 275 275 275 275 276 275 274 276 277 276 276 275 274 275 274 274 274 273 272 270 271 270 271 270 271 271 269 269 269 269 269 269 269 269 270 270 271 272

GFSNGP_sfc_thetae_021.txt.gz
Theta_e
301 300 300 299 298 300 298 298 295 297 296 299 302 303 305 307 309 309 311 313 313 312 311 310 309 307 305 305 306 303 301 300 300 301 301 300 299 299 299 298 297 297 296 296
297 300 299 297 299 299 299 299 298 298 298 304 305 306 305 306 307 307 309 311 312 311 310 309 307 305 303 305 304 304 301 299 300 300 299 299 298 298 297 297 296 296 295 295
291 295 295 291 297 298 299 300 300 296 301 304 303 303 304 305 307 307 309 310 311 310 310 309 307 305 303 305 304 301 300 299 299 298 298 297 296 295 295 296 296 295 294 294
292 289 284 296 301 299 298 300 302 301 302 303 303 306 307 308 308 308 309 310 310 311 310 310 309 305 305 303 301 299 298 297 297 297 295 295 294 295 295 296 295 294 294 293
292 290 294 296 297 296 295 296 302 301 302 303 305 306 306 309 309 309 310 311 311 312 311 311 306 305 302 300 299 297 296 296 295 294 293 293 293 294 294 295 294 294 293 292
292 289 286 296 299 303 302 293 301 302 302 302 304 299 302 308 308 309 310 311 311 312 311 309 305 303 299 297 297 296 295 294 293 293 293 292 293 293 294 294 293 293 292 292
293 291 294 299 300 303 291 295 304 304 304 304 302 304 309 310 308 310 310 311 311 310 306 304 299 297 296 294 293 293 293 293 292 293 293 293 293 293 293 293 293 292 291 291
294 289 287 301 301 295 303 305 305 306 306 306 308 308 309 309 308 309 309 309 307 303 300 297 296 296 295 293 293 292 292 292 292 293 293 293 293 293 293 293 292 291 290 290
297 298 303 303 302 305 306 305 305 305 306 307 307 307 308 307 307 307 307 303 301 298 293 293 294 292 291 291 292 292 291 291 292 293 293 292 291 290 291 291 290 290 288 288
297 300 301 303 305 305 306 306 307 308 308 308 307 308 308 308 304 303 300 296 295 294 293 289 292 291 292 292 292 291 290 290 291 290 289 290 291 290 289 290 290 288 288 287
299 302 302 303 306 306 307 308 308 309 309 309 308 308 308 305 301 298 294 294 292 289 289 290 291 291 291 291 291 289 289 290 290 290 290 290 290 289 289 291 289 289 289 288
298 304 303 304 307 308 307 306 306 307 307 304 305 305 303 296 293 293 290 289 288 289 289 289 290 290 291 291 289 289 288 289 290 290 290 290 289 288 288 287 287 285 285 286
302 306 307 307 304 303 301 300 300 300 299 296 297 296 295 293 291 290 290 289 289 289 290 290 290 289 290 290 289 288 287 288 289 288 290 288 288 287 287 289 286 285 285 285
304 305 304 301 299 301 300 300 297 296 295 293 292 292 292 291 291 290 289 291 291 290 290 290 290 290 291 290 290 290 290 286 289 290 289 288 288 287 289 288 287 288 286 285
300 302 301 301 300 298 297 294 292 291 292 291 292 291 292 291 291 291 292 292 290 290 290 291 290 290 292 293 291 290 290 290 290 290 289 287 287 286 286 287 287 287 287 285
299 299 299 296 293 293 293 292 290 289 290 292 293 293 293 293 291 291 291 291 289 289 290 287 288 292 293 292 292 291 291 287 287 288 288 288 287 287 287 287 287 286 286 287
294 293 292 290 291 291 292 293 293 294 293 292 290 289 289 288 288 290 290 291 290 286 288 288 288 292 292 292 292 292 291 290 287 288 288 288 288 286 287 287 286 286 286 287
297 294 294 294 292 292 292 292 290 289 287 288 285 285 284 284 285 287 288 288 286 286 288 289 290 291 291 292 292 291 290 289 289 288 288 287 287 287 287 286 286 285 287 287
294 293 293 292 292 290 289 288 287 287 286 285 285 284 284 285 287 287 287 285 285 286 290 291 286 287 289 289 288 290 289 289 288 287 287 286 286 286 286 286 286 286 287 287
292 291 291 289 289 289 287 286 287 289 290 286 285 285 285 285 285 285 285 284 287 289 291 291 290 289 288 288 286 289 289 289 287 286 286 286 285 285 286 286 286 286 285 285
290 289 288 286 285 285 285 286 285 285 286 284 283 282 282 283 283 283 284 283 286 288 287 287 288 289 289 289 288 288 289 287 286 286 285 285 284 285 285 285 285 285 285 285
291 287 286 287 286 285 285 284 284 283 283 283 283 283 283 284 284 285 285 284 286 284 285 287 287 286 285 285 286 285 285 286 286 286 285 284 284 283 283 283 283 283 284 284
290 288 286 285 285 285 284 283 283 283 282 282 282 282 282 282 283 282 281 284 284 283 283 285 284 283 284 285 285 285 285 285 285 283 282 281 280 280 280 280 280 280 280 281
289 287 285 284 284 283 282 282 282 282 282 282 283 281 280 280 281 282 283 282 281 280 281 278 278 277 280 282 282 281 281 281 280 279 278 278 278 278 278 278 277 277 277 278
285 285 284 284 283 283 281 281 281 281 280 280 280 280 280 281 279 279 279 278 277 277 277 276 275 274 277 276 276 275 276 276 275 275 275 275 275 275 275 275 275 274 274 275
286 286 284 281 281 281 280 280 279 280 279 279 279 279 280 279 278 277 277 276 276 275 275 275 274 273 273 273 273 272 273 272 271 271 271 272 272 272 272 272 272 272 272 273
281 281 283 282 280 279 278 278 277 277 278 276 275 278 278 277 276 275 275 275 274 274 273 273 273 272 271 271 271 271 270 270 269 269 269 269 269 269 269 269 269 270 270 271

GFSNGP_sfc_thetae_024.txt.gz
Theta_e
299 300 300 300 299 299 297 298 293 297 296 300 302 303 305 307 308 308 308 312 313 314 312 312 311 311 308 306 306 305 303 300 300 301 300 299 300 299 298 297 296 296 295 294
298 300 300 297 299 299 298 298 298 298 297 304 305 306 305 305 305 307 307 308 312 314 314 312 311 310 308 305 305 306 302 300 301 301 299 299 299 297 297 296 295 295 294 294
292 296 294 289 296 297 298 300 299 294 301 304 302 303 305 306 306 306 307 308 310 312 313 313 311 310 306 304 306 304 300 300 300 299 298 297 296 295 294 294 295 294 294 293
294 290 285 295 301 300 298 298 300 299 301 302 303 305 306 306 306 307 309 309 310 311 312 312 312 308 306 304 304 301 299 298 298 298 296 295 294 293 294 294 293 293 292 292
290 290 293 295 298 297 296 296 301 299 300 301 303 304 305 308 309 308 308 308 309 311 312 311 310 307 304 303 300 298 297 296 296 295 293 293 292 292 293 292 292 292 292 291
293 290 286 297 300 303 301 292 302 302 302 302 302 298 302 308 309 309 308 309 309 311 311 310 307 304 299 298 296 295 294 293 293 293 292 292 292 292 292 292 292 292 291 290
293 291 295 300 301 303 291 295 304 304 304 303 302 305 309 310 309 309 309 309 311 309 303 297 298 298 294 294 292 293 293 293 292 293 292 292 292 291 291 291 290 288 286 287
296 288 286 302 301 296 304 307 305 305 306 306 307 308 308 308 308 307 307 307 302 296 295 295 296 294 292 291 293 293 292 292 291 292 292 292 291 290 290 289 288 287 286 286
297 297 305 305 303 306 307 305 306 306 306 307 307 306 307 307 308 305 303 295 296 293 293 293 292 292 290 291 292 292 291 290 291 291 291 291 289 288 287 287 287 286 285 285
301 300 302 304 305 305 306 306 307 308 308 309 307 308 307 307 303 300 294 294 294 292 290 290 291 291 291 292 292 291 289 289 290 289 289 289 289 288 287 285 285 285 285 284
300 302 303 304 306 307 307 308 308 308 306 304 305 305 303 296 294 294 293 292 291 290 289 290 291 291 292 291 291 289 289 289 289 288 288 288 289 288 285 286 286 286 285 285
300 304 304 304 305 306 303 302 302 301 299 298 298 295 294 293 292 290 289 290 290 290 290 290 290 291 291 291 290 289 288 288 287 287 287 288 287 287 288 287 287 287 286 285
303 306 306 304 302 302 299 299 299 298 297 294 294 294 293 291 290 289 291 290 290 290 290 291 290 290 291 291 290 287 286 286 287 285 286 285 285 285 284 287 288 287 286 286
304 305 301 302 298 301 297 297 296 294 294 294 293 293 292 291 291 292 291 292 292 291 291 291 290 290 291 291 290 288 287 286 286 287 286 285 284 285 284 283 282 284 286 285
301 302 301 300 298 296 296 295 293 291 291 291 292 292 292 291 291 291 292 292 291 290 290 291 290 290 292 292 291 288 288 288 288 287 286 286 286 285 284 284 283 283 285 284
300 300 298 295 294 294 293 292 290 290 292 291 290 290 291 290 290 290 291 291 288 287 288 285 284 288 291 292 291 290 289 286 287 286 286 286 286 285 285 284 283 284 285 284
295 291 292 291 292 292 292 292 291 289 289 288 287 286 286 286 287 287 288 288 286 285 286 286 286 290 289 291 291 290 289 289 286 286 287 286 286 285 285 285 284 283 284 284
297 295 295 293 292 291 289 288 288 287 285 286 284 284 283 283 282 284 285 285 285 285 286 288 288 288 289 290 289 288 288 288 287 287 286 285 285 284 283 283 284 283 283 284
295 293 293 291 290 289 288 287 285 285 284 283 283 283 283 283 283 283 283 283 283 284 285 286 285 286 288 288 286 287 286 286 286 286 286 283 283 283 283 283 284 285 284 284
291 291 290 289 288 286 285 285 286 287 285 283 283 282 281 280 281 281 281 282 284 284 284 284 283 284 285 286 285 285 284 285 285 285 285 283 283 283 283 282 284 284 284 284
289 287 286 284 284 284 284 284 282 282 283 279 279 278 278 281 281 279 281 281 283 282 282 281 282 280 281 280 281 283 283 283 283 283 285 284 283 281 281 280 282 282 283 283
288 286 284 285 284 283 283 283 283 281 281 278 277 276 277 280 279 280 279 280 281 278 279 281 278 275 275 276 281 281 281 282 283 283 283 284 283 280 279 280 279 280 279 280
287 286 285 285 284 283 283 282 281 280 278 277 277 278 278 279 280 278 277 279 279 276 277 277 274 272 273 277 276 276 276 277 276 276 277 277 278 278 277 277 277 277 277 276
287 286 285 284 284 283 282 281 282 282 278 280 278 276 278 278 278 280 279 276 275 274 275 276 273 272 273 273 273 273 273 273 271 272 272 273 274 274 273 273 273 273 273 272
286 285 284 284 284 282 281 281 282 281 280 280 279 279 279 280 277 277 277 276 275 274 274 274 273 271 271 271 271 271 270 271 270 269 269 270 270 269 270 270 269 269 269 270
286 285 282 281 281 280 279 279 278 279 278 278 277 278 279 278 277 276 276 275 274 273 273 273 272 271 271 270 270 269 269 268 267 267 267 267 267 267 267 267 267 267 267 267
282 283 282 281 279 278 278 277 277 276 277 275 274 276 277 277 276 274 273 273 273 272 272 271 271 270 269 269 268 268 268 267 266 266 266 265 265 265 264 265 265 266 267 267

GFSNGP_sfc_thetae_027.txt.gz
Theta_e
296 299 298 297 297 297 294 293 287 291 293 296 296 296 297 300 301 301 303 306 307 307 307 308 307 306 305 303 301 300 298 298 299 299 300 298 297 296 296 295 294 294 294 293
290 297 295 292 295 295 295 295 293 293 293 298 299 299 298 299 300 301 301 302 304 308 308 308 307 306 305 302 301 301 301 300 300 299 298 297 296 295 295 293 293 293 292 292
284 291 289 282 289 293 295 295 294 288 293 297 297 299 298 299 300 301 301 303 304 306 308 307 307 307 303 302 303 302 302 301 298 297 296 294 293 292 291 291 292 292 292 291
282 282 275 290 297 296 294 294 295 294 295 297 297 298 300 300 300 300 302 303 303 304 306 307 306 304 303 303 303 300 297 296 294 293 293 293 292 291 291 292 291 290 290 291
280 280 287 292 295 294 292 291 296 295 296 297 298 297 299 303 302 301 301 301 302 304 304 302 302 301 300 298 296 296 294 292 292 292 292 292 291 291 291 290 289 290 291 290
282 279 275 289 296 300 297 285 298 298 297 297 297 286 295 302 304 303 303 300 295 295 295 293 294 295 292 291 291 291 291 291 292 292 292 291 291 291 290 290 290 290 288 288
278 277 285 298 299 300 283 286 298 299 298 298 295 297 301 303 303 299 296 294 294 293 291 291 293 293 290 290 290 291 292 292 292 292 292 292 290 290 289 288 287 285 285 285
284 282 280 299 297 289 295 298 299 298 298 298 299 302 303 303 297 294 292 292 292 291 290 292 293 292 291 290 291 292 292 292 292 291 291 291 289 288 287 286 284 283 283 284
289 287 298 298 297 300 300 298 299 300 301 303 302 302 303 297 291 291 291 290 290 289 289 290 291 291 290 291 292 292 291 289 290 290 290 289 286 285 284 284 280 281 282 282
291 296 297 298 302 303 303 302 302 300 299 301 300 298 292 292 292 291 290 290 291 289 288 289 291 291 290 290 290 289 288 288 288 287 287 286 286 285 283 279 278 281 280 280
293 296 301 301 302 302 300 301 297 296 295 294 293 292 291 290 289 288 289 289 289 289 289 289 289 289 289 289 289 287 287 286 285 282 284 284 285 284 283 283 283 281 280 281
286 300 297 297 299 300 297 296 297 295 293 294 294 291 290 288 288 289 288 289 289 287 288 288 288 288 288 288 287 285 285 284 282 280 281 283 283 283 286 286 286 287 286 284
299 300 299 297 296 297 295 294 294 293 293 291 291 290 289 287 288 289 289 288 289 289 288 287 287 286 287 288 287 285 283 283 282 283 282 281 279 279 280 282 286 286 286 286
301 300 296 297 293 294 293 293 293 292 292 291 290 289 288 288 289 289 288 289 289 288 288 287 286 286 287 288 287 285 283 284 283 283 282 281 279 281 284 283 280 280 283 285
297 299 295 295 294 294 293 292 289 288 288 288 288 288 289 287 287 287 288 288 287 287 287 286 284 284 287 288 288 285 284 283 283 283 284 285 284 283 283 280 280 281 282 280
296 295 294 292 292 291 289 289 287 287 287 287 286 286 286 287 286 287 287 285 282 281 283 282 284 285 287 288 288 288 286 283 282 284 285 286 285 283 284 282 281 280 280 281
290 288 289 290 289 290 289 287 287 287 285 283 282 282 283 282 283 283 283 284 283 283 284 284 283 285 286 288 287 286 285 285 285 286 285 285 286 285 284 281 280 280 281 281
294 293 293 292 289 287 286 285 283 282 282 283 283 283 282 281 280 280 279 278 276 277 282 282 281 282 282 284 283 284 284 284 284 284 285 285 285 285 283 279 276 277 280 279
293 291 290 289 288 286 284 283 282 282 282 283 282 280 277 275 277 277 277 274 275 278 280 281 280 279 278 278 277 278 278 279 279 281 281 281 282 284 284 279 276 275 281 282
289 289 288 286 285 284 284 283 282 281 281 279 275 273 274 272 271 271 273 275 279 277 278 278 277 275 274 275 274 277 277 278 279 280 281 281 281 282 282 280 276 274 276 281
285 284 283 283 282 281 281 279 279 279 280 275 274 270 270 273 272 269 273 275 277 275 276 276 274 272 273 272 275 274 274 274 275 274 275 275 276 277 278 278 276 275 276 272
284 283 282 281 280 281 280 280 280 277 276 273 268 268 268 274 271 273 270 274 275 269 273 274 273 268 270 270 272 271 270 272 269 270 270 271 272 272 273 274 274 274 274 273
285 284 283 281 280 280 280 278 276 274 271 269 268 269 271 274 275 271 271 275 274 271 273 272 266 265 265 268 268 268 268 268 266 267 267 268 269 269 269 269 269 269 269 269
284 284 283 282 280 279 278 279 279 277 271 275 270 267 274 268 266 273 272 269 265 265 266 269 267 265 262 262 264 267 265 266 265 265 264 265 266 266 267 266 266 266 267 267
283 283 282 280 280 278 278 279 278 277 277 277 276 277 275 274 267 268 265 266 268 267 263 263 264 264 261 259 261 262 263 265 262 263 263 263 263 264 264 264 264 265 265 265
283 279 279 279 278 277 277 276 274 274 273 269 269 265 268 268 268 268 265 265 266 266 263 260 260 261 261 260 259 261 259 262 261 263 262 260 260 261 261 262 263 264 264 265
280 279 277 276 277 276 275 274 270 268 266 263 264 264 270 267 263 265 261 260 260 260 259 259 258 260 261 262 257 259 256 257 257 262 258 256 258 259 259 261 262 262 263 264